,,,PA_Meas_PMT16A,,PR_Meas_QMR101_102,,RH_Meas_QMH101,,SR_Meas_QMS101,,TA_Meas_QMH101,,GenWind,,GenWind,
date,time,status,PA,status,PR,status,RH,status,SR,status,TA,status,DirAvg,status,SpdAvg,
2011-06-05, 00:00:04,VALID,999.813,VALID,0,VALID,91.7004,VALID,0,VALID,23.4671,VALID,43,VALID,1.47617,
2011-06-05, 00:01:04,VALID,999.772,VALID,0,VALID,91.6165,VALID,0,VALID,23.4475,VALID,43,VALID,1.46172,
2011-06-05, 00:02:04,VALID,999.79,VALID,0,VALID,91.5249,VALID,0,VALID,23.428,VALID,42,VALID,1.50312,
2011-06-05, 00:03:04,VALID,999.81,VALID,0,VALID,91.5478,VALID,0,VALID,23.389,VALID,40,VALID,0.757422,
2011-06-05, 00:04:04,VALID,999.797,VALID,0,VALID,91.5478,VALID,0,VALID,23.3695,VALID,40,VALID,0.506641,
2011-06-05, 00:05:04,VALID,999.751,VALID,0,VALID,91.5173,VALID,0,VALID,23.35,VALID,40,VALID,0.397656,
2011-06-05, 00:06:04,VALID,999.749,VALID,0,VALID,91.5478,VALID,0,VALID,23.3305,VALID,40,VALID,0.296484,
2011-06-05, 00:07:04,VALID,999.729,VALID,0,VALID,91.6012,VALID,0.112286,VALID,23.3092,VALID,40,VALID,0.129688,
2011-06-05, 00:08:04,VALID,999.71,VALID,0,VALID,91.6851,VALID,0,VALID,23.2897,VALID,40,VALID,0,
2011-06-05, 00:09:04,VALID,999.683,VALID,0,VALID,91.7462,VALID,0,VALID,23.2702,VALID,40,VALID,0.0667969,
2011-06-05, 00:10:04,VALID,999.677,VALID,0,VALID,91.8148,VALID,0,VALID,23.2702,VALID,40,VALID,0,
2011-06-05, 00:11:04,VALID,999.693,VALID,0,VALID,91.8072,VALID,0,VALID,23.2507,VALID,40,VALID,0,
2011-06-05, 00:12:04,VALID,999.683,VALID,0,VALID,91.8683,VALID,0,VALID,23.2507,VALID,40,VALID,0.323438,
2011-06-05, 00:13:04,VALID,999.671,VALID,0,VALID,91.8988,VALID,0,VALID,23.2719,VALID,40,VALID,0.375391,
2011-06-05, 00:14:04,VALID,999.664,VALID,0,VALID,91.9293,VALID,0,VALID,23.2507,VALID,40,VALID,0.567969,
2011-06-05, 00:15:04,VALID,999.68,VALID,0,VALID,91.998,VALID,0,VALID,23.2524,VALID,40,VALID,0.612891,
2011-06-05, 00:16:04,VALID,999.687,VALID,0,VALID,92.0132,VALID,0,VALID,23.2329,VALID,40,VALID,0.470703,
2011-06-05, 00:17:04,VALID,999.692,VALID,0,VALID,91.998,VALID,0,VALID,23.1921,VALID,40,VALID,0.266016,
2011-06-05, 00:18:04,VALID,999.679,VALID,0,VALID,92.0132,VALID,0,VALID,23.1921,VALID,40,VALID,0,
2011-06-05, 00:19:04,VALID,999.644,VALID,0,VALID,92.0209,VALID,0,VALID,23.1744,VALID,40,VALID,0,
2011-06-05, 00:20:04,VALID,999.636,VALID,0,VALID,92.0285,VALID,0,VALID,23.1549,VALID,40,VALID,0,
2011-06-05, 00:21:04,VALID,999.651,VALID,0,VALID,92.0819,VALID,0,VALID,23.0946,VALID,40,VALID,0,
2011-06-05, 00:22:04,VALID,999.66,VALID,0,VALID,92.0971,VALID,0,VALID,23.0751,VALID,40,VALID,0,
2011-06-05, 00:23:04,VALID,999.62,VALID,0,VALID,92.12,VALID,0,VALID,23.0556,VALID,40,VALID,0,
2011-06-05, 00:24:04,VALID,999.61,VALID,0,VALID,92.1429,VALID,0,VALID,23.0556,VALID,40,VALID,0,
2011-06-05, 00:25:04,VALID,999.596,VALID,0,VALID,92.1887,VALID,0,VALID,23.0361,VALID,40,VALID,0.60625,
2011-06-05, 00:26:04,VALID,999.594,VALID,0,VALID,92.1963,VALID,0,VALID,23.0573,VALID,40,VALID,0.492578,
2011-06-05, 00:27:04,VALID,999.599,VALID,0,VALID,92.2497,VALID,0,VALID,23.0769,VALID,40,VALID,0.585938,
2011-06-05, 00:28:04,VALID,999.589,VALID,0,VALID,92.2421,VALID,0,VALID,23.0573,VALID,40,VALID,0.755859,
2011-06-05, 00:29:04,VALID,999.573,VALID,0,VALID,92.2192,VALID,0,VALID,23.0573,VALID,40,VALID,0.630469,
2011-06-05, 00:30:04,VALID,999.572,VALID,0,VALID,92.1734,VALID,0,VALID,23.0378,VALID,40,VALID,0.420312,
2011-06-05, 00:31:04,VALID,999.587,VALID,0,VALID,92.1429,VALID,0,VALID,23.0166,VALID,40,VALID,0.261719,
2011-06-05, 00:32:04,VALID,999.541,VALID,0,VALID,92.1048,VALID,0,VALID,23.0378,VALID,40,VALID,0,
2011-06-05, 00:33:04,VALID,999.513,VALID,0,VALID,92.0361,VALID,0,VALID,22.9776,VALID,40,VALID,0,
2011-06-05, 00:34:04,VALID,999.508,VALID,0,VALID,91.9751,VALID,0,VALID,22.9598,VALID,40,VALID,0,
2011-06-05, 00:35:04,VALID,999.488,VALID,0,VALID,91.9598,VALID,0,VALID,22.9385,VALID,40,VALID,0,
2011-06-05, 00:36:04,VALID,999.449,VALID,0,VALID,92.0209,VALID,0,VALID,22.9793,VALID,40,VALID,0.232812,
2011-06-05, 00:37:04,VALID,999.402,VALID,0,VALID,92.0666,VALID,0,VALID,22.9776,VALID,40,VALID,0.285156,
2011-06-05, 00:38:04,VALID,999.397,VALID,0,VALID,92.1658,VALID,0,VALID,22.9776,VALID,40,VALID,0.317969,
2011-06-05, 00:39:04,VALID,999.374,VALID,0,VALID,92.2803,VALID,0,VALID,23.0166,VALID,40,VALID,0.430078,
2011-06-05, 00:40:04,VALID,999.37,VALID,0,VALID,92.3337,VALID,0.112286,VALID,23.0361,VALID,40,VALID,0.31875,
2011-06-05, 00:41:04,VALID,999.358,VALID,0,VALID,92.3871,VALID,0.112286,VALID,23.0556,VALID,40,VALID,0.254687,
2011-06-05, 00:42:04,VALID,999.362,VALID,0,VALID,92.3718,VALID,0,VALID,23.0769,VALID,40,VALID,0.294922,
2011-06-05, 00:43:04,VALID,999.359,VALID,0,VALID,92.3337,VALID,0,VALID,23.0573,VALID,40,VALID,0.247656,
2011-06-05, 00:44:04,VALID,999.356,VALID,0,VALID,92.2116,VALID,0.112286,VALID,22.9988,VALID,40,VALID,0.147266,
2011-06-05, 00:45:04,VALID,999.33,VALID,0,VALID,92.0819,VALID,0,VALID,22.9403,VALID,40,VALID,0.00820312,
2011-06-05, 00:46:04,VALID,999.341,VALID,0,VALID,92.0743,VALID,0,VALID,22.9403,VALID,40,VALID,0,
2011-06-05, 00:47:04,VALID,999.335,VALID,0,VALID,92.1353,VALID,0,VALID,22.9598,VALID,40,VALID,0,
2011-06-05, 00:48:04,VALID,999.314,VALID,0,VALID,92.2497,VALID,0,VALID,22.9598,VALID,40,VALID,0,
2011-06-05, 00:49:04,VALID,999.284,VALID,0,VALID,92.3337,VALID,0,VALID,22.9793,VALID,40,VALID,0.152734,
2011-06-05, 00:50:04,VALID,999.256,VALID,0,VALID,92.4176,VALID,0,VALID,22.9988,VALID,40,VALID,0.522656,
2011-06-05, 00:51:04,VALID,999.259,VALID,0,VALID,92.4557,VALID,0.112286,VALID,23.0166,VALID,40,VALID,0.753516,
2011-06-05, 00:52:04,VALID,999.246,VALID,0,VALID,92.4328,VALID,0,VALID,23.0573,VALID,40,VALID,0.737109,
2011-06-05, 00:53:04,VALID,999.224,VALID,0,VALID,92.3413,VALID,0,VALID,23.0769,VALID,51,VALID,1.06641,
2011-06-05, 00:54:04,VALID,999.241,VALID,0,VALID,92.2192,VALID,0,VALID,23.0556,VALID,66,VALID,1.37734,
2011-06-05, 00:55:04,VALID,999.213,VALID,0,VALID,92.1734,VALID,0,VALID,23.0573,VALID,68,VALID,1.32813,
2011-06-05, 00:56:04,VALID,999.191,VALID,0,VALID,92.1658,VALID,0,VALID,23.0378,VALID,70,VALID,1.36484,
2011-06-05, 00:57:04,VALID,999.178,VALID,0,VALID,92.1887,VALID,0,VALID,23.0183,VALID,73,VALID,1.37734,
2011-06-05, 00:58:04,VALID,999.137,VALID,0,VALID,92.2268,VALID,0,VALID,22.9988,VALID,81,VALID,1.04219,
2011-06-05, 00:59:04,VALID,999.157,VALID,0,VALID,92.2421,VALID,0,VALID,22.9385,VALID,82,VALID,1.30742,
2011-06-05, 01:00:04,VALID,999.138,VALID,0,VALID,92.2803,VALID,0,VALID,22.9403,VALID,82,VALID,1.22422,
2011-06-05, 01:01:04,VALID,999.105,VALID,0,VALID,92.3489,VALID,0,VALID,22.9208,VALID,82,VALID,1.25273,
2011-06-05, 01:02:04,VALID,999.122,VALID,0,VALID,92.3794,VALID,0,VALID,22.9013,VALID,81,VALID,1.11602,
2011-06-05, 01:03:04,VALID,999.072,VALID,0,VALID,92.41,VALID,0,VALID,22.88,VALID,81,VALID,1.02422,
2011-06-05, 01:04:04,VALID,999.085,VALID,0,VALID,92.4405,VALID,0,VALID,22.9013,VALID,81,VALID,1.13477,
2011-06-05, 01:05:04,VALID,999.055,VALID,0,VALID,92.41,VALID,0,VALID,22.8995,VALID,81,VALID,0.937891,
2011-06-05, 01:06:04,VALID,999.071,VALID,0,VALID,92.3871,VALID,0,VALID,22.8995,VALID,81,VALID,0.882422,
2011-06-05, 01:07:04,VALID,999.021,VALID,0,VALID,92.3413,VALID,0,VALID,22.9208,VALID,81,VALID,0.996094,
2011-06-05, 01:08:04,VALID,999.007,VALID,0,VALID,92.265,VALID,0,VALID,22.9208,VALID,81,VALID,0.706641,
2011-06-05, 01:09:04,VALID,998.98,VALID,0,VALID,92.2116,VALID,0,VALID,22.9013,VALID,81,VALID,0.571094,
2011-06-05, 01:10:04,VALID,998.922,VALID,0,VALID,92.1277,VALID,0,VALID,22.9013,VALID,81,VALID,0.409375,
2011-06-05, 01:11:04,VALID,998.951,VALID,0,VALID,92.0971,VALID,0,VALID,22.88,VALID,81,VALID,0.0730469,
2011-06-05, 01:12:04,VALID,998.952,VALID,0,VALID,92.0514,VALID,0,VALID,22.8818,VALID,81,VALID,0.0859375,
2011-06-05, 01:13:04,VALID,998.927,VALID,0,VALID,92.0056,VALID,0,VALID,22.8623,VALID,81,VALID,0,
2011-06-05, 01:14:04,VALID,998.925,VALID,0,VALID,92.0132,VALID,0,VALID,22.8232,VALID,81,VALID,0.00078125,
2011-06-05, 01:15:04,VALID,998.915,VALID,0,VALID,92.0361,VALID,0,VALID,22.8427,VALID,81,VALID,0.221875,
2011-06-05, 01:16:04,VALID,998.881,VALID,0,VALID,92.1353,VALID,0,VALID,22.841,VALID,67,VALID,0.600391,
2011-06-05, 01:17:04,VALID,998.874,VALID,0,VALID,92.2192,VALID,0,VALID,22.8818,VALID,305,VALID,0.731641,
2011-06-05, 01:18:04,VALID,998.846,VALID,0,VALID,92.3184,VALID,0,VALID,22.8818,VALID,305,VALID,0.682031,
2011-06-05, 01:19:04,VALID,998.844,VALID,0,VALID,92.3566,VALID,0,VALID,22.9013,VALID,305,VALID,0.675781,
2011-06-05, 01:20:04,VALID,998.827,VALID,0,VALID,92.4252,VALID,0,VALID,22.8995,VALID,305,VALID,0.519922,
2011-06-05, 01:21:04,VALID,998.832,VALID,0,VALID,92.471,VALID,0,VALID,22.9793,VALID,262,VALID,0.559766,
2011-06-05, 01:22:04,VALID,998.796,VALID,0,VALID,92.4863,VALID,0,VALID,22.9581,VALID,261,VALID,0.447656,
2011-06-05, 01:23:04,VALID,998.793,VALID,0,VALID,92.4939,VALID,0,VALID,22.9776,VALID,261,VALID,0.405859,
2011-06-05, 01:24:04,VALID,998.788,VALID,0,VALID,92.4786,VALID,0,VALID,22.9988,VALID,261,VALID,0.252344,
2011-06-05, 01:25:04,VALID,998.781,VALID,0,VALID,92.3947,VALID,0,VALID,22.9988,VALID,261,VALID,0.00585938,
2011-06-05, 01:26:04,VALID,998.781,VALID,0,VALID,92.3108,VALID,0,VALID,22.9581,VALID,261,VALID,0,
2011-06-05, 01:27:04,VALID,998.785,VALID,0,VALID,92.2574,VALID,0,VALID,22.9598,VALID,262,VALID,0,
2011-06-05, 01:28:04,VALID,998.777,VALID,0,VALID,92.204,VALID,0,VALID,22.9208,VALID,262,VALID,0.18125,
2011-06-05, 01:29:04,VALID,998.802,VALID,0,VALID,92.1811,VALID,0,VALID,22.9013,VALID,262,VALID,0.441797,
2011-06-05, 01:30:04,VALID,998.815,VALID,0,VALID,92.2497,VALID,0,VALID,22.9013,VALID,262,VALID,0.358594,
2011-06-05, 01:31:04,VALID,998.832,VALID,0,VALID,92.2955,VALID,0,VALID,22.903,VALID,262,VALID,0.653906,
2011-06-05, 01:32:04,VALID,998.87,VALID,0,VALID,92.3489,VALID,0,VALID,22.903,VALID,291,VALID,0.553906,
2011-06-05, 01:33:04,VALID,998.874,VALID,0,VALID,92.3794,VALID,0,VALID,22.864,VALID,291,VALID,0.511719,
2011-06-05, 01:34:04,VALID,998.857,VALID,0,VALID,92.41,VALID,0,VALID,22.8445,VALID,291,VALID,0.504687,
2011-06-05, 01:35:04,VALID,998.864,VALID,0,VALID,92.4634,VALID,0,VALID,22.8445,VALID,291,VALID,0.273828,
2011-06-05, 01:36:04,VALID,998.832,VALID,0,VALID,92.4863,VALID,0,VALID,22.825,VALID,291,VALID,0.0597656,
2011-06-05, 01:37:04,VALID,998.874,VALID,0,VALID,92.5397,VALID,0,VALID,22.825,VALID,291,VALID,0.155859,
2011-06-05, 01:38:04,VALID,998.861,VALID,0,VALID,92.5931,VALID,0,VALID,22.825,VALID,291,VALID,0.269141,
2011-06-05, 01:39:04,VALID,998.867,VALID,0,VALID,92.6465,VALID,0,VALID,22.825,VALID,291,VALID,0,
2011-06-05, 01:40:04,VALID,998.863,VALID,0,VALID,92.7151,VALID,0,VALID,22.825,VALID,291,VALID,0,
2011-06-05, 01:41:04,VALID,998.86,VALID,0,VALID,92.7457,VALID,0,VALID,22.8445,VALID,291,VALID,0,
2011-06-05, 01:42:04,VALID,998.819,VALID,0,VALID,92.7685,VALID,0,VALID,22.8055,VALID,291,VALID,0,
2011-06-05, 01:43:04,VALID,998.79,VALID,0,VALID,92.7991,VALID,0,VALID,22.825,VALID,291,VALID,0,
2011-06-05, 01:44:04,VALID,998.798,VALID,0,VALID,92.8372,VALID,0,VALID,22.8037,VALID,291,VALID,0,
2011-06-05, 01:45:04,VALID,998.754,VALID,0,VALID,92.8677,VALID,0,VALID,22.8427,VALID,291,VALID,0,
2011-06-05, 01:46:04,VALID,998.735,VALID,0,VALID,92.8754,VALID,0,VALID,22.8037,VALID,291,VALID,0,
2011-06-05, 01:47:04,VALID,998.689,VALID,0,VALID,92.8754,VALID,0,VALID,22.8037,VALID,291,VALID,0,
2011-06-05, 01:48:04,VALID,998.691,VALID,0,VALID,92.8906,VALID,0,VALID,22.8037,VALID,291,VALID,0,
2011-06-05, 01:49:04,VALID,998.696,VALID,0,VALID,92.8906,VALID,0,VALID,22.8037,VALID,291,VALID,0,
2011-06-05, 01:50:04,VALID,998.701,VALID,0,VALID,92.9135,VALID,0,VALID,22.8037,VALID,291,VALID,0,
2011-06-05, 01:51:04,VALID,998.69,VALID,0,VALID,92.944,VALID,0,VALID,22.8037,VALID,291,VALID,0,
2011-06-05, 01:52:04,VALID,998.667,VALID,0,VALID,92.9593,VALID,0,VALID,22.8232,VALID,291,VALID,0.298828,
2011-06-05, 01:53:04,VALID,998.683,VALID,0,VALID,92.9898,VALID,0,VALID,22.8427,VALID,291,VALID,0,
2011-06-05, 01:54:04,VALID,998.698,VALID,0,VALID,92.9898,VALID,0,VALID,22.8232,VALID,291,VALID,0,
2011-06-05, 01:55:04,VALID,998.705,VALID,0,VALID,93.0051,VALID,0,VALID,22.8818,VALID,291,VALID,0,
2011-06-05, 01:56:04,VALID,998.696,VALID,0,VALID,93.028,VALID,0,VALID,22.9208,VALID,291,VALID,0,
2011-06-05, 01:57:04,VALID,998.74,VALID,0,VALID,93.0356,VALID,0,VALID,22.9208,VALID,291,VALID,0.973828,
2011-06-05, 01:58:04,VALID,998.729,VALID,0,VALID,93.0432,VALID,0,VALID,22.9385,VALID,108,VALID,1.30898,
2011-06-05, 01:59:04,VALID,998.686,VALID,0,VALID,93.0737,VALID,0,VALID,23.0769,VALID,108,VALID,0,
2011-06-05, 02:00:04,VALID,998.713,VALID,0,VALID,93.0356,VALID,0,VALID,23.0946,VALID,118,VALID,0.937109,
2011-06-05, 02:01:04,VALID,998.666,VALID,0,VALID,92.9898,VALID,0,VALID,23.1744,VALID,124,VALID,1.06484,
2011-06-05, 02:02:04,VALID,998.686,VALID,0,VALID,92.8983,VALID,0,VALID,23.2134,VALID,142,VALID,0.829687,
2011-06-05, 02:03:04,VALID,998.683,VALID,0,VALID,92.7991,VALID,0,VALID,23.2524,VALID,146,VALID,0.669141,
2011-06-05, 02:04:04,VALID,998.666,VALID,0,VALID,92.6617,VALID,0,VALID,23.3305,VALID,146,VALID,1.22852,
2011-06-05, 02:05:04,VALID,998.653,VALID,0,VALID,92.4634,VALID,0,VALID,23.4671,VALID,146,VALID,0.587109,
2011-06-05, 02:06:04,VALID,998.641,VALID,0,VALID,92.0743,VALID,0,VALID,23.5256,VALID,139,VALID,1.03711,
2011-06-05, 02:07:04,VALID,998.606,VALID,0,VALID,91.4715,VALID,0,VALID,23.5841,VALID,139,VALID,1.18008,
2011-06-05, 02:08:04,VALID,998.565,VALID,0,VALID,90.6246,VALID,0,VALID,23.6036,VALID,137,VALID,1.34727,
2011-06-05, 02:09:04,VALID,998.584,VALID,0,VALID,89.854,VALID,0,VALID,23.6232,VALID,130,VALID,0.866797,
2011-06-05, 02:10:04,VALID,998.586,VALID,0,VALID,89.381,VALID,0,VALID,23.6232,VALID,130,VALID,0.649609,
2011-06-05, 02:11:04,VALID,998.575,VALID,0,VALID,89.175,VALID,0,VALID,23.6232,VALID,130,VALID,0.439063,
2011-06-05, 02:12:04,VALID,998.559,VALID,0,VALID,89.0606,VALID,0,VALID,23.5841,VALID,92,VALID,0.534766,
2011-06-05, 02:13:04,VALID,998.583,VALID,0,VALID,89.3428,VALID,0,VALID,23.5664,VALID,92,VALID,0,
2011-06-05, 02:14:04,VALID,998.601,VALID,0,VALID,89.5641,VALID,0,VALID,23.5061,VALID,92,VALID,0,
2011-06-05, 02:15:04,VALID,998.587,VALID,0,VALID,89.6709,VALID,0,VALID,23.4671,VALID,92,VALID,0.365234,
2011-06-05, 02:16:04,VALID,998.629,VALID,0,VALID,89.6328,VALID,0,VALID,23.3695,VALID,50,VALID,0.366406,
2011-06-05, 02:17:04,VALID,998.627,VALID,0,VALID,89.854,VALID,0,VALID,23.3323,VALID,14,VALID,0.79375,
2011-06-05, 02:18:04,VALID,998.626,VALID,0,VALID,90.0677,VALID,0,VALID,23.2542,VALID,12,VALID,0.96875,
2011-06-05, 02:19:04,VALID,998.625,VALID,0,VALID,90.205,VALID,0,VALID,23.1354,VALID,21,VALID,0.914844,
2011-06-05, 02:20:04,VALID,998.629,VALID,0,VALID,90.5331,VALID,0,VALID,23.0769,VALID,21,VALID,0.749219,
2011-06-05, 02:21:04,VALID,998.608,VALID,0,VALID,90.7314,VALID,0,VALID,23.0183,VALID,29,VALID,0.607422,
2011-06-05, 02:22:04,VALID,998.61,VALID,0,VALID,90.8764,VALID,0,VALID,22.9598,VALID,29,VALID,0.402344,
2011-06-05, 02:23:04,VALID,998.592,VALID,0,VALID,91.1434,VALID,0,VALID,22.9208,VALID,29,VALID,0.306641,
2011-06-05, 02:24:04,VALID,998.594,VALID,0,VALID,91.3418,VALID,0,VALID,22.9013,VALID,29,VALID,0.00195313,
2011-06-05, 02:25:04,VALID,998.609,VALID,0,VALID,91.4486,VALID,0,VALID,22.8623,VALID,29,VALID,0,
2011-06-05, 02:26:04,VALID,998.592,VALID,0,VALID,91.5936,VALID,0,VALID,22.8623,VALID,29,VALID,0,
2011-06-05, 02:27:04,VALID,998.583,VALID,0,VALID,91.7309,VALID,0,VALID,22.8427,VALID,29,VALID,0.0105469,
2011-06-05, 02:28:04,VALID,998.605,VALID,0,VALID,91.8148,VALID,0,VALID,22.8427,VALID,29,VALID,0.510156,
2011-06-05, 02:29:04,VALID,998.578,VALID,0,VALID,91.8683,VALID,0,VALID,22.8427,VALID,19,VALID,0.699219,
2011-06-05, 02:30:04,VALID,998.612,VALID,0,VALID,91.914,VALID,0,VALID,22.8232,VALID,19,VALID,0.780469,
2011-06-05, 02:31:04,VALID,998.59,VALID,0,VALID,91.9064,VALID,0.112286,VALID,22.7647,VALID,19,VALID,0.670313,
2011-06-05, 02:32:04,VALID,998.562,VALID,0,VALID,91.914,VALID,0,VALID,22.7452,VALID,19,VALID,0.603125,
2011-06-05, 02:33:04,VALID,998.594,VALID,0,VALID,91.9674,VALID,0,VALID,22.7062,VALID,19,VALID,0,
2011-06-05, 02:34:04,VALID,998.604,VALID,0,VALID,91.9903,VALID,0,VALID,22.6867,VALID,19,VALID,0.190234,
2011-06-05, 02:35:04,VALID,998.587,VALID,0,VALID,92.0209,VALID,0,VALID,22.6672,VALID,19,VALID,0.204297,
2011-06-05, 02:36:04,VALID,998.563,VALID,0,VALID,92.1048,VALID,0,VALID,22.6477,VALID,19,VALID,0.479297,
2011-06-05, 02:37:04,VALID,998.573,VALID,0,VALID,92.1811,VALID,0,VALID,22.6087,VALID,19,VALID,0.481641,
2011-06-05, 02:38:04,VALID,998.572,VALID,0,VALID,92.2803,VALID,0,VALID,22.6282,VALID,19,VALID,0.125391,
2011-06-05, 02:39:04,VALID,998.576,VALID,0,VALID,92.3184,VALID,0,VALID,22.5679,VALID,19,VALID,0,
2011-06-05, 02:40:04,VALID,998.575,VALID,0,VALID,92.3642,VALID,0,VALID,22.5501,VALID,19,VALID,0.260938,
2011-06-05, 02:41:04,VALID,998.558,VALID,0,VALID,92.4405,VALID,0,VALID,22.5501,VALID,19,VALID,0.460547,
2011-06-05, 02:42:04,VALID,998.561,VALID,0,VALID,92.5397,VALID,0,VALID,22.5696,VALID,337,VALID,0.611719,
2011-06-05, 02:43:04,VALID,998.575,VALID,0,VALID,92.616,VALID,0,VALID,22.5696,VALID,314,VALID,0.842969,
2011-06-05, 02:44:04,VALID,998.563,VALID,0,VALID,92.6923,VALID,0,VALID,22.6104,VALID,300,VALID,0.828516,
2011-06-05, 02:45:04,VALID,998.563,VALID,0,VALID,92.7685,VALID,0,VALID,22.6104,VALID,300,VALID,0.578125,
2011-06-05, 02:46:04,VALID,998.572,VALID,0,VALID,92.8372,VALID,0,VALID,22.6299,VALID,300,VALID,0.388672,
2011-06-05, 02:47:04,VALID,998.573,VALID,0,VALID,92.8754,VALID,0,VALID,22.6299,VALID,300,VALID,0.162891,
2011-06-05, 02:48:04,VALID,998.595,VALID,0,VALID,92.9211,VALID,0,VALID,22.6299,VALID,300,VALID,0.01875,
2011-06-05, 02:49:04,VALID,998.587,VALID,0,VALID,92.944,VALID,0,VALID,22.6282,VALID,300,VALID,0.229687,
2011-06-05, 02:50:04,VALID,998.593,VALID,0,VALID,92.9517,VALID,0,VALID,22.6494,VALID,300,VALID,0.0804688,
2011-06-05, 02:51:04,VALID,998.608,VALID,0,VALID,92.9288,VALID,0,VALID,22.5892,VALID,300,VALID,0,
2011-06-05, 02:52:04,VALID,998.628,VALID,0,VALID,92.9669,VALID,0,VALID,22.6299,VALID,300,VALID,0,
2011-06-05, 02:53:04,VALID,998.629,VALID,0,VALID,92.9822,VALID,0,VALID,22.6494,VALID,300,VALID,0.398438,
2011-06-05, 02:54:04,VALID,998.657,VALID,0,VALID,92.9974,VALID,0,VALID,22.6494,VALID,302,VALID,0.726172,
2011-06-05, 02:55:04,VALID,998.624,VALID,0,VALID,93.0051,VALID,0,VALID,22.6299,VALID,353,VALID,0.835938,
2011-06-05, 02:56:04,VALID,998.628,VALID,0,VALID,92.9898,VALID,0,VALID,22.6299,VALID,353,VALID,0.748828,
2011-06-05, 02:57:04,VALID,998.64,VALID,0,VALID,92.9974,VALID,0,VALID,22.6494,VALID,353,VALID,0.513281,
2011-06-05, 02:58:04,VALID,998.636,VALID,0,VALID,93.0051,VALID,0,VALID,22.6494,VALID,353,VALID,0.435547,
2011-06-05, 02:59:04,VALID,998.646,VALID,0,VALID,93.0127,VALID,0,VALID,22.6689,VALID,353,VALID,0.558594,
2011-06-05, 03:00:04,VALID,998.626,VALID,0,VALID,93.0203,VALID,0,VALID,22.6282,VALID,13,VALID,1.05039,
2011-06-05, 03:01:04,VALID,998.622,VALID,0,VALID,93.0051,VALID,0,VALID,22.6282,VALID,13,VALID,0.826172,
2011-06-05, 03:02:04,VALID,998.668,VALID,0,VALID,92.9745,VALID,0,VALID,22.6087,VALID,13,VALID,0.807422,
2011-06-05, 03:03:04,VALID,998.644,VALID,0,VALID,92.9822,VALID,0.112286,VALID,22.6282,VALID,13,VALID,0.807422,
2011-06-05, 03:04:04,VALID,998.645,VALID,0,VALID,93.0432,VALID,0.112286,VALID,22.6655,VALID,13,VALID,0.691797,
2011-06-05, 03:05:04,VALID,998.649,VALID,0,VALID,93.0585,VALID,0,VALID,22.7045,VALID,13,VALID,0.791797,
2011-06-05, 03:06:04,VALID,998.644,VALID,0,VALID,93.0203,VALID,0,VALID,22.724,VALID,13,VALID,0.633984,
2011-06-05, 03:07:04,VALID,998.63,VALID,0,VALID,92.9822,VALID,0,VALID,22.7435,VALID,13,VALID,0.6625,
2011-06-05, 03:08:04,VALID,998.677,VALID,0,VALID,92.9822,VALID,0,VALID,22.763,VALID,14,VALID,0.752344,
2011-06-05, 03:09:04,VALID,998.631,VALID,0,VALID,92.944,VALID,0.112286,VALID,22.7825,VALID,14,VALID,0.736719,
2011-06-05, 03:10:04,VALID,998.624,VALID,0,VALID,92.9135,VALID,0.112286,VALID,22.8623,VALID,39,VALID,0.817578,
2011-06-05, 03:11:04,VALID,998.59,VALID,0,VALID,92.7838,VALID,0.112286,VALID,22.841,VALID,45,VALID,0.990234,
2011-06-05, 03:12:04,VALID,998.586,VALID,0,VALID,92.6312,VALID,0.112286,VALID,22.8427,VALID,45,VALID,1.03477,
2011-06-05, 03:13:04,VALID,998.584,VALID,0,VALID,92.4176,VALID,0,VALID,22.8232,VALID,45,VALID,1.21563,
2011-06-05, 03:14:04,VALID,998.557,VALID,0,VALID,92.2116,VALID,0,VALID,22.8037,VALID,52,VALID,1.41875,
2011-06-05, 03:15:04,VALID,998.581,VALID,0,VALID,92.0666,VALID,0,VALID,22.786,VALID,55,VALID,1.56914,
2011-06-05, 03:16:04,VALID,998.577,VALID,0,VALID,91.9751,VALID,0,VALID,22.786,VALID,57,VALID,1.42617,
2011-06-05, 03:17:04,VALID,998.551,VALID,0,VALID,91.9598,VALID,0,VALID,22.7469,VALID,57,VALID,1.3543,
2011-06-05, 03:18:04,VALID,998.547,VALID,0,VALID,91.9674,VALID,0,VALID,22.7469,VALID,57,VALID,1.14102,
2011-06-05, 03:19:04,VALID,998.537,VALID,0,VALID,91.9674,VALID,0,VALID,22.6867,VALID,57,VALID,0.977344,
2011-06-05, 03:20:04,VALID,998.517,VALID,0,VALID,92.0056,VALID,0,VALID,22.6884,VALID,45,VALID,0.880859,
2011-06-05, 03:21:04,VALID,998.51,VALID,0,VALID,92.0285,VALID,0,VALID,22.6299,VALID,33,VALID,1.02148,
2011-06-05, 03:22:04,VALID,998.534,VALID,0,VALID,92.0666,VALID,0,VALID,22.6104,VALID,27,VALID,0.821094,
2011-06-05, 03:23:04,VALID,998.523,VALID,0,VALID,92.1277,VALID,0,VALID,22.5714,VALID,25,VALID,0.819922,
2011-06-05, 03:24:04,VALID,998.531,VALID,0,VALID,92.1963,VALID,0,VALID,22.5323,VALID,35,VALID,0.909766,
2011-06-05, 03:25:04,VALID,998.538,VALID,0,VALID,92.3031,VALID,0,VALID,22.4916,VALID,35,VALID,0.954297,
2011-06-05, 03:26:04,VALID,998.513,VALID,0,VALID,92.4328,VALID,0,VALID,22.4916,VALID,35,VALID,0.963281,
2011-06-05, 03:27:04,VALID,998.486,VALID,0,VALID,92.5244,VALID,0,VALID,22.4721,VALID,35,VALID,0.985547,
2011-06-05, 03:28:04,VALID,998.509,VALID,0,VALID,92.6312,VALID,0,VALID,22.4738,VALID,35,VALID,0.807422,
2011-06-05, 03:29:04,VALID,998.518,VALID,0,VALID,92.7151,VALID,0,VALID,22.4738,VALID,35,VALID,0.773047,
2011-06-05, 03:30:04,VALID,998.51,VALID,0,VALID,92.7609,VALID,0,VALID,22.4348,VALID,35,VALID,0.763281,
2011-06-05, 03:31:04,VALID,998.483,VALID,0,VALID,92.8143,VALID,0,VALID,22.4153,VALID,35,VALID,0.934375,
2011-06-05, 03:32:04,VALID,998.501,VALID,0,VALID,92.822,VALID,0,VALID,22.3958,VALID,35,VALID,0.809375,
2011-06-05, 03:33:04,VALID,998.499,VALID,0,VALID,92.8601,VALID,0,VALID,22.3356,VALID,35,VALID,0.757031,
2011-06-05, 03:34:04,VALID,998.459,VALID,0,VALID,92.9059,VALID,0,VALID,22.3551,VALID,35,VALID,0.6,
2011-06-05, 03:35:04,VALID,998.449,VALID,0,VALID,92.9364,VALID,0,VALID,22.3356,VALID,35,VALID,0.657422,
2011-06-05, 03:36:04,VALID,998.463,VALID,0,VALID,92.9898,VALID,0,VALID,22.3373,VALID,35,VALID,0.784766,
2011-06-05, 03:37:04,VALID,998.456,VALID,0,VALID,93.0127,VALID,0,VALID,22.3373,VALID,35,VALID,0.826172,
2011-06-05, 03:38:04,VALID,998.436,VALID,0,VALID,93.0585,VALID,0,VALID,22.2966,VALID,35,VALID,0.676172,
2011-06-05, 03:39:04,VALID,998.404,VALID,0,VALID,93.0737,VALID,0,VALID,22.3178,VALID,35,VALID,0.533984,
2011-06-05, 03:40:04,VALID,998.407,VALID,0,VALID,93.1119,VALID,0,VALID,22.2983,VALID,35,VALID,0.384766,
2011-06-05, 03:41:04,VALID,998.394,VALID,0,VALID,93.1119,VALID,0,VALID,22.2592,VALID,35,VALID,0.30625,
2011-06-05, 03:42:04,VALID,998.394,VALID,0,VALID,93.1348,VALID,0,VALID,22.2788,VALID,35,VALID,0.369922,
2011-06-05, 03:43:04,VALID,998.401,VALID,0,VALID,93.1729,VALID,0,VALID,22.2983,VALID,51,VALID,0.474219,
2011-06-05, 03:44:04,VALID,998.417,VALID,0,VALID,93.2111,VALID,0,VALID,22.2983,VALID,51,VALID,0.337109,
2011-06-05, 03:45:04,VALID,998.424,VALID,0,VALID,93.2187,VALID,0,VALID,22.2983,VALID,51,VALID,0.469531,
2011-06-05, 03:46:04,VALID,998.431,VALID,0,VALID,93.234,VALID,0,VALID,22.2983,VALID,87,VALID,0.635156,
2011-06-05, 03:47:04,VALID,998.406,VALID,0,VALID,93.2492,VALID,0,VALID,22.3373,VALID,108,VALID,0.772656,
2011-06-05, 03:48:04,VALID,998.435,VALID,0,VALID,93.3026,VALID,0,VALID,22.3356,VALID,110,VALID,0.644922,